View from above orbital plane
|
View from above satellite
|
Ground track
|
The orbit data is extracted from the following two-line orbital elements,
1 37181U 10051C 21018.85796870 .00001043 00000-0 82728-4 0 9998
2 37181 97.7855 6.7773 0106060 312.7897 108.1021 14.98592700561373
Epoch (UTC): | 18 January 2021 20:35:28 |
Eccentricity: | 0.0106060 |
inclination: | 97.7855° |
perigee height: | 497 km |
apogee height: | 645 km |
right ascension of ascending node: | 6.7773° |
argument of perigee: | 312.7897° |
revolutions per day: | 14.98592700 |
mean anomaly at epoch: | 108.1021° |
orbit number at epoch: | 56137 |
The dashed part of the orbit path shows where the satellite is in the earth's shadow,
|
|